UAL441 KBZN-KDEN

Flight info

Callsign UAL441
Flight time 1h 12m
Altitude 39000
Route BOBKT5 BOY TOFUU FLATI5
Aircraft A319/M-SDE3FGHIRWY/LB1

Departure

Time 2026-05-01 14:17
Airport Bozeman Yellowstone International Airport (KBZN)

Arrival

Time 2026-05-01 15:30
Airport Denver International Airport (KDEN)
Time Latitude Longitude Altitude Speed Heading
2026-05-01 13:33 45.78001 -111.16197 4486 ft 0 kts 225°
2026-05-01 14:06 45.78012 -111.16181 4476 ft 4 kts 231°
2026-05-01 14:07 45.78026 -111.16150 4481 ft 4 kts 253°
2026-05-01 14:07 45.78027 -111.16116 4481 ft 4 kts 305°
2026-05-01 14:07 45.78020 -111.16105 4481 ft 1 kts 316°
2026-05-01 14:12 45.78021 -111.16105 4481 ft 1 kts 316°
2026-05-01 14:12 45.78030 -111.16118 4481 ft 3 kts 316°
2026-05-01 14:13 45.78051 -111.16146 4481 ft 5 kts 316°
2026-05-01 14:13 45.78070 -111.16172 4484 ft 6 kts 323°
2026-05-01 14:13 45.78123 -111.16140 4485 ft 8 kts 26°
2026-05-01 14:13 45.78173 -111.16173 4483 ft 9 kts 315°
2026-05-01 14:14 45.78223 -111.16243 4481 ft 11 kts 315°
2026-05-01 14:14 45.78282 -111.16326 4481 ft 13 kts 315°
2026-05-01 14:14 45.78350 -111.16421 4481 ft 15 kts 315°
2026-05-01 14:14 45.78426 -111.16528 4481 ft 16 kts 316°
2026-05-01 14:15 45.78511 -111.16645 4484 ft 18 kts 316°
2026-05-01 14:15 45.78586 -111.16748 4484 ft 13 kts 316°
2026-05-01 14:15 45.78662 -111.16828 4481 ft 14 kts 353°
2026-05-01 14:15 45.78733 -111.16746 4481 ft 9 kts 52°
2026-05-01 14:16 45.78776 -111.16672 4483 ft 10 kts 48°
2026-05-01 14:16 45.78792 -111.16623 4484 ft 4 kts 95°
2026-05-01 14:16 45.78773 -111.16594 4487 ft 5 kts 139°
2026-05-01 14:16 45.78711 -111.16510 4485 ft 32 kts 136°
2026-05-01 14:17 45.78405 -111.16082 4481 ft 91 kts 135°
2026-05-01 14:17 45.77808 -111.15254 4482 ft 148 kts 136°
2026-05-01 14:17 45.77008 -111.14203 5069 ft 148 kts 136°
2026-05-01 14:17 45.76324 -111.13231 5811 ft 130 kts 133°
2026-05-01 14:18 45.75667 -111.12212 6054 ft 148 kts 133°
2026-05-01 14:18 45.74921 -111.11146 6270 ft 165 kts 135°
2026-05-01 14:18 45.74042 -111.09885 6326 ft 198 kts 134°
2026-05-01 14:18 45.73357 -111.08884 6503 ft 216 kts 135°
2026-05-01 14:19 45.71856 -111.06699 7057 ft 249 kts 135°
2026-05-01 14:19 45.70579 -111.04848 7566 ft 272 kts 135°
2026-05-01 14:19 45.69221 -111.02883 8350 ft 282 kts 135°
2026-05-01 14:19 45.67860 -111.00826 9219 ft 288 kts 128°
2026-05-01 14:20 45.66796 -110.98384 10098 ft 292 kts 114°
2026-05-01 14:20 45.65822 -110.92430 11035 ft 325 kts 96°
2026-05-01 14:20 45.65522 -110.89200 11791 ft 331 kts 96°
2026-05-01 14:21 45.65209 -110.85930 12570 ft 334 kts 96°
2026-05-01 14:21 45.64649 -110.82675 13346 ft 341 kts 108°
2026-05-01 14:21 45.63574 -110.79621 14115 ft 348 kts 121°
2026-05-01 14:22 45.60126 -110.74640 15498 ft 359 kts 137°
2026-05-01 14:22 45.58200 -110.72335 16198 ft 363 kts 137°
2026-05-01 14:22 45.56263 -110.70006 16882 ft 366 kts 137°
2026-05-01 14:22 45.54306 -110.67652 17551 ft 371 kts 136°
2026-05-01 14:23 45.52349 -110.65301 18223 ft 374 kts 136°
2026-05-01 14:23 45.50352 -110.62903 18850 ft 378 kts 136°
2026-05-01 14:23 45.48332 -110.60485 19457 ft 381 kts 136°
2026-05-01 14:23 45.46291 -110.58050 20036 ft 384 kts 136°
2026-05-01 14:24 45.44230 -110.55596 20648 ft 388 kts 136°
2026-05-01 14:24 45.42154 -110.53124 21254 ft 391 kts 136°
2026-05-01 14:24 45.40061 -110.50635 21869 ft 394 kts 136°
2026-05-01 14:24 45.37953 -110.48128 22451 ft 397 kts 136°
2026-05-01 14:25 45.35855 -110.45632 22981 ft 400 kts 136°
2026-05-01 14:25 45.33717 -110.43089 23585 ft 403 kts 136°
2026-05-01 14:25 45.31558 -110.40522 24115 ft 406 kts 136°
2026-05-01 14:25 45.29385 -110.37941 24593 ft 408 kts 136°
2026-05-01 14:26 45.27200 -110.35353 25072 ft 410 kts 136°
2026-05-01 14:26 45.22785 -110.30137 26006 ft 415 kts 136°
2026-05-01 14:26 45.20559 -110.27510 26482 ft 418 kts 136°
2026-05-01 14:27 45.18348 -110.24906 26921 ft 420 kts 136°
2026-05-01 14:27 45.16097 -110.22261 27374 ft 422 kts 136°
2026-05-01 14:27 45.13826 -110.19594 27816 ft 425 kts 136°
2026-05-01 14:28 45.09252 -110.14219 28672 ft 430 kts 136°
2026-05-01 14:28 45.06946 -110.11510 29113 ft 432 kts 136°
2026-05-01 14:28 45.04622 -110.08789 29540 ft 435 kts 136°
2026-05-01 14:28 45.02283 -110.06055 29960 ft 437 kts 136°
2026-05-01 14:29 44.99932 -110.03307 30378 ft 440 kts 136°
2026-05-01 14:29 44.97598 -110.00579 30744 ft 442 kts 136°
2026-05-01 14:30 44.90449 -109.92246 31783 ft 447 kts 136°
2026-05-01 14:30 44.88044 -109.89451 32118 ft 449 kts 136°
2026-05-01 14:30 44.85630 -109.86645 32476 ft 450 kts 136°
2026-05-01 14:31 44.80824 -109.81071 33475 ft 445 kts 135°
2026-05-01 14:31 44.78442 -109.78317 34008 ft 442 kts 135°
2026-05-01 14:31 44.76065 -109.75572 34489 ft 440 kts 135°
2026-05-01 14:31 44.73729 -109.72881 34893 ft 439 kts 136°
2026-05-01 14:32 44.71364 -109.70158 35250 ft 440 kts 136°
2026-05-01 14:32 44.69001 -109.67431 35589 ft 440 kts 136°
2026-05-01 14:32 44.66636 -109.64700 35925 ft 440 kts 136°
2026-05-01 14:32 44.64269 -109.61975 36240 ft 441 kts 136°
2026-05-01 14:33 44.61893 -109.59245 36526 ft 442 kts 136°
2026-05-01 14:33 44.59508 -109.56509 36805 ft 443 kts 136°
2026-05-01 14:33 44.57119 -109.53772 37103 ft 444 kts 136°
2026-05-01 14:33 44.54726 -109.51034 37378 ft 444 kts 136°
2026-05-01 14:34 44.52360 -109.48333 37684 ft 445 kts 137°
2026-05-01 14:34 44.49961 -109.45598 37973 ft 445 kts 137°
2026-05-01 14:34 44.47556 -109.42859 38247 ft 446 kts 137°
2026-05-01 14:34 44.45153 -109.40119 38514 ft 446 kts 137°
2026-05-01 14:35 44.42745 -109.37374 38795 ft 446 kts 137°
2026-05-01 14:35 44.40335 -109.34632 39027 ft 447 kts 137°
2026-05-01 14:35 44.37924 -109.31892 39182 ft 448 kts 137°
2026-05-01 14:36 44.33085 -109.26402 39240 ft 448 kts 137°
2026-05-01 14:36 44.28276 -109.20959 39224 ft 448 kts 137°
2026-05-01 14:37 44.23424 -109.15488 39225 ft 449 kts 137°
2026-05-01 14:37 44.18566 -109.10018 39223 ft 449 kts 137°
2026-05-01 14:38 44.13714 -109.04558 39218 ft 449 kts 137°
2026-05-01 14:38 44.08846 -108.99096 39187 ft 450 kts 137°
2026-05-01 14:39 44.03998 -108.93663 39187 ft 451 kts 137°
2026-05-01 14:39 43.99115 -108.88195 39189 ft 451 kts 137°
2026-05-01 14:40 43.94224 -108.82734 39178 ft 452 kts 138°
2026-05-01 14:40 43.89308 -108.77280 39172 ft 452 kts 138°
2026-05-01 14:41 43.84429 -108.71870 39195 ft 452 kts 138°
2026-05-01 14:41 43.79510 -108.66421 39216 ft 453 kts 138°
2026-05-01 14:42 43.74585 -108.60981 39228 ft 453 kts 138°
2026-05-01 14:42 43.69652 -108.55544 39243 ft 454 kts 138°
2026-05-01 14:43 43.64713 -108.50109 39243 ft 454 kts 138°
2026-05-01 14:43 43.59791 -108.44716 39236 ft 455 kts 138°
2026-05-01 14:44 43.54835 -108.39280 39183 ft 455 kts 138°
2026-05-01 14:44 43.47270 -108.31333 39189 ft 458 kts 147°
2026-05-01 14:45 43.38300 -108.26845 39194 ft 462 kts 162°
2026-05-01 14:46 43.32108 -108.24428 39212 ft 463 kts 162°
2026-05-01 14:46 43.22817 -108.20775 39233 ft 463 kts 162°
2026-05-01 14:47 43.16660 -108.18369 39243 ft 463 kts 162°
2026-05-01 14:48 43.07356 -108.14769 39249 ft 463 kts 162°
2026-05-01 14:48 42.98061 -108.11177 39243 ft 463 kts 162°
2026-05-01 14:49 42.85713 -108.06412 39222 ft 463 kts 163°
2026-05-01 14:50 42.73321 -108.01655 39219 ft 463 kts 163°
2026-05-01 14:51 42.64070 -107.98119 39218 ft 463 kts 163°
2026-05-01 14:52 42.54775 -107.94570 39234 ft 462 kts 163°
2026-05-01 14:53 42.45484 -107.91042 39249 ft 462 kts 163°
2026-05-01 14:53 42.39293 -107.88695 39249 ft 462 kts 164°
2026-05-01 14:54 42.33152 -107.86371 39256 ft 461 kts 164°
2026-05-01 14:54 42.26974 -107.84039 39259 ft 461 kts 164°
2026-05-01 14:55 42.20798 -107.81714 39259 ft 460 kts 164°
2026-05-01 14:55 42.14631 -107.79391 39265 ft 460 kts 164°
2026-05-01 14:56 42.08466 -107.77074 39271 ft 460 kts 164°
2026-05-01 14:56 42.02350 -107.74778 39265 ft 459 kts 165°
2026-05-01 14:57 41.96188 -107.72481 39265 ft 459 kts 165°
2026-05-01 14:57 41.86954 -107.69031 39270 ft 459 kts 164°
2026-05-01 14:58 41.81222 -107.65462 39266 ft 459 kts 145°
2026-05-01 14:58 41.76577 -107.59631 39267 ft 459 kts 131°
2026-05-01 14:59 41.72314 -107.53260 39272 ft 459 kts 131°
2026-05-01 14:59 41.68035 -107.46904 39272 ft 460 kts 131°
2026-05-01 15:00 41.61645 -107.37416 39270 ft 460 kts 132°
2026-05-01 15:01 41.57351 -107.31058 39271 ft 461 kts 132°
2026-05-01 15:01 41.53050 -107.24711 39271 ft 461 kts 132°
2026-05-01 15:02 41.48766 -107.18407 39277 ft 462 kts 132°
2026-05-01 15:02 41.44448 -107.12070 39277 ft 462 kts 132°
2026-05-01 15:03 41.40135 -107.05740 39263 ft 461 kts 132°
2026-05-01 15:03 41.35826 -106.99411 39271 ft 462 kts 132°
2026-05-01 15:04 41.31504 -106.93080 39261 ft 462 kts 132°
2026-05-01 15:04 41.27199 -106.86798 39271 ft 463 kts 132°
2026-05-01 15:05 41.22854 -106.80477 39270 ft 463 kts 132°
2026-05-01 15:05 41.18506 -106.74156 39267 ft 464 kts 132°
2026-05-01 15:05 41.16315 -106.70976 38803 ft 472 kts 132°
2026-05-01 15:06 41.14082 -106.67732 38048 ft 477 kts 132°
2026-05-01 15:06 41.11845 -106.64482 37473 ft 476 kts 132°
2026-05-01 15:06 41.09659 -106.61309 37185 ft 469 kts 132°
2026-05-01 15:06 41.07462 -106.58130 36735 ft 466 kts 131°
2026-05-01 15:07 41.05279 -106.54976 36070 ft 467 kts 131°
2026-05-01 15:07 41.03078 -106.51804 35362 ft 467 kts 131°
2026-05-01 15:07 41.00898 -106.48672 34890 ft 458 kts 131°
2026-05-01 15:07 40.98756 -106.45600 34413 ft 450 kts 130°
2026-05-01 15:08 40.96651 -106.42583 33879 ft 442 kts 130°
2026-05-01 15:08 40.94589 -106.39629 33416 ft 433 kts 130°
2026-05-01 15:08 40.92564 -106.36730 32953 ft 424 kts 130°
2026-05-01 15:08 40.90609 -106.33928 32509 ft 416 kts 130°
2026-05-01 15:09 40.88664 -106.31138 32055 ft 409 kts 129°
2026-05-01 15:09 40.86753 -106.28400 31627 ft 401 kts 129°
2026-05-01 15:09 40.84992 -106.25581 31209 ft 395 kts 121°
2026-05-01 15:09 40.83590 -106.22500 30831 ft 388 kts 112°
2026-05-01 15:10 40.82459 -106.19291 30457 ft 384 kts 110°
2026-05-01 15:10 40.80223 -106.12962 29696 ft 376 kts 111°
2026-05-01 15:10 40.79129 -106.09897 29352 ft 373 kts 111°
2026-05-01 15:11 40.78028 -106.06821 29008 ft 369 kts 111°
2026-05-01 15:11 40.75863 -106.00778 28336 ft 360 kts 111°
2026-05-01 15:11 40.74801 -105.97806 28006 ft 357 kts 111°
2026-05-01 15:12 40.73749 -105.94858 27665 ft 353 kts 111°
2026-05-01 15:12 40.71679 -105.89050 27039 ft 353 kts 111°
2026-05-01 15:12 40.70616 -105.86056 26771 ft 366 kts 111°
2026-05-01 15:13 40.67339 -105.76921 25956 ft 369 kts 112°
2026-05-01 15:14 40.65139 -105.70840 25423 ft 367 kts 112°
2026-05-01 15:14 40.64044 -105.67815 25150 ft 366 kts 112°
2026-05-01 15:14 40.61837 -105.61709 24070 ft 372 kts 112°
2026-05-01 15:15 40.59642 -105.55643 23075 ft 366 kts 113°
2026-05-01 15:15 40.57459 -105.49642 22104 ft 360 kts 113°
2026-05-01 15:16 40.55308 -105.43745 21230 ft 355 kts 112°
2026-05-01 15:16 40.53191 -105.37932 20312 ft 349 kts 112°
2026-05-01 15:17 40.51124 -105.32277 19278 ft 341 kts 112°
2026-05-01 15:18 40.48084 -105.23987 17364 ft 332 kts 112°
2026-05-01 15:18 40.47091 -105.21275 16830 ft 325 kts 113°
2026-05-01 15:19 40.44959 -105.13986 16165 ft 319 kts 104°
2026-05-01 15:19 40.43433 -105.07542 15308 ft 317 kts 105°
2026-05-01 15:19 40.42775 -105.04778 14914 ft 316 kts 105°
2026-05-01 15:20 40.41465 -104.99322 14487 ft 313 kts 105°
2026-05-01 15:20 40.40812 -104.96605 14249 ft 311 kts 106°
2026-05-01 15:20 40.40382 -104.94822 14093 ft 308 kts 106°
2026-05-01 15:21 40.39735 -104.92139 13979 ft 309 kts 106°
2026-05-01 15:21 40.39084 -104.89438 13992 ft 312 kts 106°
2026-05-01 15:21 40.38432 -104.86716 13795 ft 313 kts 106°
2026-05-01 15:21 40.37577 -104.83128 13443 ft 310 kts 106°
2026-05-01 15:22 40.36506 -104.78641 12998 ft 303 kts 106°
2026-05-01 15:22 40.35810 -104.76118 12981 ft 290 kts 116°
2026-05-01 15:22 40.34673 -104.73991 12887 ft 294 kts 133°
2026-05-01 15:23 40.32922 -104.72205 12338 ft 345 kts 149°
2026-05-01 15:23 40.30718 -104.70544 11921 ft 385 kts 147°
2026-05-01 15:23 40.28344 -104.68903 11426 ft 384 kts 160°
2026-05-01 15:23 40.25775 -104.68289 10915 ft 367 kts 178°
2026-05-01 15:24 40.23288 -104.68278 10449 ft 347 kts 181°
2026-05-01 15:24 40.20932 -104.68304 10051 ft 330 kts 181°
2026-05-01 15:24 40.18720 -104.68334 9961 ft 305 kts 181°
2026-05-01 15:24 40.16685 -104.68361 9966 ft 280 kts 180°
2026-05-01 15:25 40.14926 -104.68384 9800 ft 267 kts 180°
2026-05-01 15:25 40.13096 -104.68407 9483 ft 260 kts 181°
2026-05-01 15:25 40.11303 -104.68428 9185 ft 255 kts 181°
2026-05-01 15:25 40.09576 -104.68448 8906 ft 241 kts 181°
2026-05-01 15:26 40.07951 -104.68467 8654 ft 227 kts 181°
2026-05-01 15:26 40.06426 -104.68485 8572 ft 214 kts 181°
2026-05-01 15:26 40.04944 -104.68502 8366 ft 212 kts 181°
2026-05-01 15:26 40.03471 -104.68520 8108 ft 211 kts 181°
2026-05-01 15:27 40.02006 -104.68537 7832 ft 210 kts 181°
2026-05-01 15:27 40.00567 -104.68554 7569 ft 209 kts 181°
2026-05-01 15:27 39.99118 -104.68571 7300 ft 208 kts 181°
2026-05-01 15:28 39.96352 -104.68602 6786 ft 186 kts 182°
2026-05-01 15:28 39.95105 -104.68616 6555 ft 173 kts 182°
2026-05-01 15:28 39.93936 -104.68632 6285 ft 163 kts 183°
2026-05-01 15:29 39.91768 -104.68663 5871 ft 151 kts 182°
2026-05-01 15:29 39.90733 -104.68656 5619 ft 149 kts 183°
2026-05-01 15:29 39.88748 -104.68693 5361 ft 125 kts 179°
2026-05-01 15:30 39.87716 -104.68704 5362 ft 35 kts 179°
2026-05-01 15:31 39.86714 -104.68501 5362 ft 41 kts 181°
2026-05-01 15:31 39.86242 -104.68507 5365 ft 33 kts 180°
2026-05-01 15:32 39.86031 -104.68431 5371 ft 14 kts 89°
2026-05-01 15:32 39.86045 -104.68171 5378 ft 16 kts 66°
2026-05-01 15:33 39.85953 -104.67949 5379 ft 6 kts 181°
2026-05-01 15:34 39.85936 -104.67949 5379 ft 0 kts 180°